Home   Weather   Hyderabad   Past weeks

Flag for India Past Weather in Hyderabad, Telangana, India — Yesterday and Last 2 Weeks

68 °F


Feels Like: 68 °F
Forecast: 64 / 88 °F
Wind: No wind

Location: Hyderabad Airport

Current Time: Oct 25, 2016 at 8:47:14 AM

Latest Report: Oct 25, 2016 at 7:30 AM

Visibility: 1 mi

Pressure: 29.98 "Hg (28.26 "Hg at 507m altitude)

Humidity: 69%

Dew Point: 57 °F

Location of HyderabadLocation

Past Weather in Hyderabad — Graph


Hyderabad Temperature Yesterday

Maximum temperature yesterday: 86 °F (at 11:30 AM)
Minimum temperature yesterday: 64 °F (at 6:00 AM)
Average temperature yesterday: 76 °F

High & Low Weather Summary for the Past Weeks

High90 °F (Oct 11, 2:30 PM)88% (Oct 10, 8:00 AM)30.04 "Hg (Oct 10, 8:00 AM)
Low57 °F (Oct 21, 6:00 AM)21% (Oct 22, 2:00 PM)28.06 "Hg (Oct 17, 2:30 PM)
Average79 °F45%29.91 "Hg
* Reported Oct 10 7:30 AM — Oct 25 7:30 AM, Hyderabad, Weather by CustomWeather, © 2016

Note: Actual official high and low records may vary slightly from our data, if they occured in-between our weather recording intervals... More about our weather records


Hyderabad Weather History for the Previous 24 Hours

Scroll right to see more
Time TempWeatherWind HumidityBarometerVisibility
7:30 AM
Tue, Oct 25
68 °FFog.No wind69%29.98 "Hg1 mi
7:00 AM66 °FFog.No wind73%29.95 "Hg1 mi
6:00 AM64 °FPartly cloudy.No wind73%29.95 "Hg2 mi
12:00 AM66 °FHaze.No wind64%29.95 "Hg2 mi
11:30 PM
Mon, Oct 24
66 °FHaze.No wind64%29.95 "Hg2 mi
11:00 PM66 °FHaze.No wind64%29.98 "Hg2 mi
10:30 PM68 °FHaze.No wind60%29.98 "Hg2 mi
10:00 PM68 °FHaze.No wind56%29.98 "Hg2 mi
9:30 PM68 °FHaze.No wind56%29.98 "Hg2 mi
9:00 PM68 °FHaze.No wind60%29.98 "Hg2 mi
8:30 PM68 °FHaze.No wind60%29.98 "Hg2 mi
8:00 PM70 °FHaze.No wind57%29.95 "Hg2 mi
7:00 PM72 °FPassing clouds.No wind50%29.95 "Hg3 mi
6:30 PM73 °FPartly cloudy.2 mph47%29.92 "Hg3 mi
6:00 PM75 °FBroken clouds.3 mph41%29.92 "Hg3 mi
5:30 PM77 °FBroken clouds.3 mph39%29.92 "Hg3 mi
5:00 PM79 °FBroken clouds.3 mph37%29.89 "Hg3 mi
4:30 PM81 °FBroken clouds.3 mph34%29.89 "Hg3 mi
3:30 PM82 °FBroken clouds.3 mph32%29.89 "Hg4 mi
3:00 PM84 °FBroken clouds.5 mph31%29.89 "Hg4 mi
2:30 PM84 °FBroken clouds.5 mph31%29.92 "Hg4 mi
2:00 PM86 °FBroken clouds.3 mph29%29.92 "Hg4 mi
1:30 PM86 °FBroken clouds.2 mph29%29.92 "Hg4 mi
1:00 PM86 °FScattered clouds.2 mph29%29.95 "Hg4 mi
12:30 PM86 °FScattered clouds.5 mph31%29.98 "Hg4 mi
11:30 AM86 °FScattered clouds.3 mph29%29.98 "Hg3 mi
11:00 AM84 °FScattered clouds.3 mph31%30.01 "Hg3 mi
10:30 AM84 °FPartly sunny.3 mph31%30.01 "Hg3 mi
8:30 AM77 °FFog.No wind47%30.01 "Hg1 mi
Weather by CustomWeather, © 2016

See weather overviewHow to use our weather pages